Location: Antoign�
(47.0844°N, 0.1131°W)
Time: 08:23:03
(UTC+00:00)

USA 305 - Pass Details

Date: 03 March 2021
Orbit: 564 x 577 km, 54.0° (Epoch: 10 April)

Event Time Altitude Azimuth Distance (km) Brightness Sun altitude
Rises 19:43:47 0° 290° (WNW) 2,783 8.0 -20.2°
Reaches altitude 10° 19:46:14 10° 300° (WNW) 1,882 6.6 -20.6°
Maximum altitude 19:50:07 33° 5° (N) 983 4.1 -21.3°
Enters shadow 19:50:57 30° 29° (NNE) 1,042 4.0 -21.4°
